EW1714 Weather Reports


Display with metric or nautical units.
time (UTC)temp
F
wind
direction
speed
MPH
gust
MPH
rain 1hr
in
rain 24hr
in
rain mn
in
humidity
%
barometer
mb
20260903232008 73 223 0.0 0.0 0.00 0.00 0.00 87 1011.9
20260903231518 73 223 0.0 0.0 0.00 0.00 0.00 87 1012.0
20260903231008 73 223 0.0 0.0 0.00 0.00 0.00 87 1012.2
20260903230511 73 223 0.0 0.0 0.00 0.00 0.00 87 1012.2
20260903230025 74 223 0.0 0.0 0.00 0.00 0.00 86 1012.3
20260903225514 74 223 0.0 0.0 0.00 0.00 0.00 86 1012.2
20260903225015 74 223 0.0 0.0 0.00 0.00 0.00 85 1012.0
20260903224528 74 223 0.0 0.0 0.00 0.00 0.00 85 1011.9
20260903224019 74 223 0.0 0.0 0.00 0.00 0.00 85 1011.8
20260903223515 75 223 0.0 0.0 0.00 0.00 0.00 84 1011.9
20260903223038 75 223 0.0 0.0 0.00 0.00 0.00 84 1012.0
20260903222520 75 223 0.0 0.0 0.00 0.00 0.00 84 1012.3
20260903222021 75 223 0.0 0.0 0.00 0.00 0.00 83 1012.4
20260903221532 75 223 0.0 0.0 0.00 0.00 0.00 83 1012.5
20260903221016 76 223 0.0 0.0 0.00 0.00 0.00 82 1012.5
20260903220509 76 223 0.0 0.0 0.00 0.00 0.00 80 1012.5
20260903220032 76 223 0.0 0.0 0.00 0.00 0.00 82 1012.5
20260903215513 76 223 0.0 0.0 0.00 0.00 0.00 81 1012.4
20260903215010 76 223 0.0 0.0 0.00 0.00 0.00 81 1012.4
20260903214528 76 223 0.0 0.0 0.00 0.00 0.00 80 1012.4
20260903214004 76 223 0.0 0.0 0.00 0.00 0.00 79 1012.6
20260903213504 76 324 0.0 0.0 0.00 0.00 0.00 79 1012.5
20260903213008 76 324 0.0 0.0 0.00 0.00 0.00 80 1012.4
20260903212506 76 324 0.0 0.0 0.00 0.00 0.00 78 1012.4
20260903212005 76 321 0.0 0.0 0.00 0.00 0.00 78 1012.5
20260903211519 76 321 0.0 0.0 0.00 0.00 0.00 77 1012.5
20260903211006 77 321 0.0 0.0 0.00 0.00 0.00 77 1012.5
20260903210506 77 321 0.0 0.0 0.00 0.00 0.00 78 1012.5
20260903210001 77 321 0.0 0.0 0.00 0.00 0.00 77 1012.5
20260903205507 77 321 0.0 0.0 0.00 0.00 0.00 77 1012.5
20260903205002 77 321 0.0 0.0 0.00 0.00 0.00 77 1012.5
20260903204501 77 321 0.0 0.0 0.00 0.00 0.00 76 1012.5
20260903204009 77 321 0.0 0.0 0.00 0.00 0.00 74 1012.5
20260903203502 78 321 0.0 0.0 0.00 0.00 0.00 75 1012.5
20260903203006 78 321 0.0 0.0 0.00 0.00 0.00 74 1012.4
20260903202504 78 321 0.0 0.0 0.00 0.00 0.00 75 1012.5
20260903202004 79 321 0.0 0.0 0.00 0.00 0.00 73 1012.5
20260903201507 79 307 0.0 0.0 0.00 0.00 0.00 73 1012.5
20260903201006 79 307 0.0 0.0 0.00 0.00 0.00 74 1012.6
20260903200506 78 196 0.0 0.0 0.00 0.00 0.00 76 1012.7
20260903200014 78 196 0.0 0.0 0.00 0.00 0.00 74 1012.6
20260903195506 78 196 0.0 0.0 0.00 0.00 0.00 74 1012.7
20260903195011 78 196 0.0 0.0 0.00 0.00 0.00 76 1012.9
20260903194517 78 196 0.0 0.0 0.00 0.00 0.00 74 1013.0
20260903194005 78 196 0.0 0.0 0.00 0.00 0.00 75 1013.0
20260903193502 78 197 0.0 0.0 0.00 0.00 0.00 76 1013.0
20260903193005 77 197 0.0 0.0 0.00 0.00 0.00 77 1013.1
20260903192502 77 196 0.0 0.0 0.00 0.00 0.00 75 1013.1
20260903192004 77 196 0.0 0.0 0.00 0.00 0.00 76 1013.1
20260903191508 77 196 0.0 0.0 0.00 0.00 0.00 76 1013.2
20260903191004 76 196 0.0 0.0 0.00 0.00 0.00 76 1013.2
20260903190505 75 359 0.0 0.0 0.00 0.00 0.00 79 1013.2
20260903190012 75 359 0.0 1.0 0.00 0.00 0.00 79 1013.3
20260903185508 74 359 0.0 1.0 0.00 0.00 0.00 81 1013.3
20260903185007 74 359 0.0 1.0 0.00 0.00 0.00 80 1013.4
20260903184518 74 360 0.0 0.0 0.00 0.00 0.00 79 1013.6
20260903184011 74 360 0.0 0.0 0.00 0.00 0.00 80 1013.7
20260903183510 74 360 0.0 0.0 0.00 0.00 0.00 80 1013.8
20260903183020 74 360 0.0 6.0 0.00 0.00 0.00 81 1013.8
20260903182503 74 360 0.0 6.0 0.00 0.00 0.00 80 1013.7
20260903182003 73 359 0.0 5.0 0.00 0.00 0.00 81 1013.8
20260903181519 73 354 0.0 5.0 0.00 0.00 0.00 82 1013.8
20260903181015 72 354 0.0 5.0 0.00 0.00 0.00 83 1013.7
20260903180504 72 358 1.0 5.0 0.00 0.00 0.00 83 1013.9
20260903180012 72 1 0.0 4.0 0.00 0.00 0.00 83 1014.0
20260903175504 72 359 0.0 4.0 0.00 0.00 0.00 84 1014.0
20260903175005 72 359 0.0 4.0 0.00 0.00 0.00 83 1014.1
20260903174529 72 358 0.0 2.0 0.00 0.00 0.00 83 1014.1
20260903174006 72 358 0.0 2.0 0.00 0.00 0.00 82 1014.3
20260903173506 72 356 0.0 2.0 0.00 0.00 0.00 83 1014.3
20260903173024 72 352 0.0 2.0 0.00 0.00 0.00 82 1014.3
20260903172510 72 349 0.0 2.0 0.00 0.00 0.00 82 1014.4
20260903172012 72 333 0.0 0.0 0.00 0.00 0.00 82 1014.3
20260903171529 72 333 0.0 5.0 0.00 0.00 0.00 82 1014.3
20260903171011 72 332 0.0 5.0 0.00 0.00 0.00 83 1014.2
20260903170503 72 339 0.0 7.0 0.00 0.00 0.00 84 1014.1
20260903170004 72 359 0.0 7.0 0.00 0.00 0.00 84 1014.1
20260903165503 71 354 0.0 7.0 0.00 0.00 0.00 85 1014.1
20260903165004 71 4 0.0 5.0 0.00 0.00 0.00 86 1014.1
20260903164509 70 360 0.0 5.0 0.00 0.00 0.00 86 1014.1
20260903164006 70 359 0.0 3.0 0.00 0.00 0.00 88 1014.1
20260903163506 69 359 0.0 0.0 0.00 0.00 0.00 87 1014.1
20260903163013 69 359 0.0 0.0 0.00 0.00 0.00 89 1014.2
20260903162508 69 359 0.0 5.0 0.00 0.00 0.00 89 1014.2
20260903162007 69 359 0.0 5.0 0.00 0.00 0.00 88 1014.3
20260903161524 69 359 1.0 5.0 0.00 0.00 0.00 89 1014.3
20260903161011 68 359 0.0 4.0 0.00 0.00 0.00 89 1014.3
20260903160513 68 359 0.0 4.0 0.00 0.00 0.00 89 1014.5
20260903160030 68 359 0.0 4.0 0.00 0.00 0.00 90 1014.4
20260903155514 68 359 0.0 6.0 0.00 0.00 0.00 90 1014.4
20260903155007 68 359 1.0 6.0 0.00 0.00 0.00 91 1014.3
20260903154506 68 1 0.0 1.0 0.00 0.00 0.00 91 1014.4
20260903154005 67 1 0.0 0.0 0.00 0.00 0.00 91 1014.5
20260903153504 67 1 0.0 2.0 0.00 0.00 0.00 91 1014.4
20260903153012 67 1 0.0 2.0 0.00 0.00 0.00 91 1014.7
20260903152505 67 1 0.0 1.0 0.00 0.00 0.00 91 1014.7
20260903152006 67 1 0.0 4.0 0.00 0.00 0.00 91 1014.9
20260903151519 67 1 0.0 4.0 0.00 0.00 0.00 91 1014.8
20260903151008 67 270 0.0 0.0 0.00 0.00 0.00 92 1014.9
20260903150512 66 270 0.0 3.0 0.00 0.00 0.00 92 1014.9
20260903150029 66 270 0.0 3.0 0.00 0.00 0.00 92 1014.9
20260903145513 66 269 0.0 0.0 0.00 0.00 0.00 92 1015.0
20260903145016 66 269 0.0 0.0 0.00 0.00 0.00 93 1015.1
20260903144531 66 269 0.0 0.0 0.00 0.00 0.00 93 1015.1
20260903144018 66 269 0.0 0.0 0.00 0.00 0.00 93 1015.2
20260903143514 65 269 0.0 0.0 0.00 0.00 0.00 93 1015.2
20260903143008 65 269 0.0 0.0 0.00 0.00 0.00 93 1015.1
20260903142506 65 269 0.0 0.0 0.00 0.00 0.00 93 1015.0
20260903142008 65 269 0.0 0.0 0.00 0.00 0.00 94 1015.0
20260903141512 65 269 0.0 0.0 0.00 0.00 0.00 94 1015.0
20260903141009 65 193 0.0 0.0 0.00 0.00 0.00 93 1015.1
20260903140510 65 193 0.0 0.0 0.00 0.00 0.00 94 1015.3
20260903140025 65 193 0.0 0.0 0.00 0.00 0.00 94 1015.4
20260903135509 65 193 0.0 0.0 0.00 0.00 0.00 94 1015.5
20260903135012 64 193 0.0 0.0 0.00 0.00 0.00 94 1015.5
20260903134527 64 193 0.0 0.0 0.00 0.00 0.00 94 1015.5
20260903134017 64 193 0.0 0.0 0.00 0.00 0.00 94 1015.5
20260903133513 64 193 0.0 0.0 0.00 0.00 0.00 94 1015.4
20260903133029 64 193 0.0 0.0 0.00 0.00 0.00 95 1015.4
20260903132515 64 193 0.0 0.0 0.00 0.00 0.00 95 1015.3
20260903132016 64 193 0.0 0.0 0.00 0.00 0.00 95 1015.2
20260903131512 64 193 0.0 0.0 0.00 0.00 0.00 95 1015.1
20260903131007 64 193 0.0 0.0 0.00 0.00 0.00 95 1015.3
20260903130511 64 193 0.0 0.0 0.00 0.00 0.00 95 1015.3
20260903130020 64 193 0.0 0.0 0.00 0.00 0.00 95 1015.4
20260903125510 63 193 0.0 0.0 0.00 0.00 0.00 95 1015.4
20260903125010 63 193 0.0 0.0 0.00 0.00 0.00 95 1015.5
20260903124524 63 193 0.0 0.0 0.00 0.00 0.00 95 1015.5
20260903124003 63 193 0.0 0.0 0.00 0.00 0.00 95 1015.6
20260903123504 63 193 0.0 0.0 0.00 0.00 0.00 95 1015.6
20260903123007 63 193 0.0 0.0 0.00 0.00 0.00 95 1015.8
20260903122504 63 193 0.0 0.0 0.00 0.00 0.00 95 1015.8
20260903122003 63 193 0.0 0.0 0.00 0.00 0.00 95 1015.9
20260903121505 63 193 0.0 0.0 0.00 0.00 0.00 96 1015.9
20260903121005 63 193 0.0 0.0 0.00 0.00 0.00 96 1015.8
20260903120506 63 193 0.0 0.0 0.00 0.00 0.00 96 1015.9
20260903120024 63 193 0.0 0.0 0.00 0.00 0.00 96 1015.9
20260903115508 63 193 0.0 0.0 0.00 0.00 0.00 96 1015.9
20260903115011 63 193 0.0 0.0 0.00 0.00 0.00 95 1016.0
20260903114516 62 193 0.0 0.0 0.00 0.00 0.00 95 1016.1
20260903114002 62 193 0.0 0.0 0.00 0.00 0.00 95 1016.0
20260903113503 62 193 0.0 0.0 0.00 0.00 0.00 95 1016.1
20260903113003 62 193 0.0 0.0 0.00 0.00 0.00 95 1016.1
20260903112503 62 193 0.0 0.0 0.00 0.00 0.00 95 1016.1
20260903112004 62 193 0.0 0.0 0.00 0.00 0.00 95 1016.1
20260903111504 62 193 0.0 0.0 0.00 0.00 0.00 95 1016.1
20260903111004 62 193 0.0 0.0 0.00 0.00 0.00 95 1016.0
20260903110505 62 193 0.0 0.0 0.00 0.00 0.00 95 1016.0
20260903110008 62 193 0.0 0.0 0.00 0.00 0.00 95 1016.0
20260903105507 62 193 0.0 0.0 0.00 0.00 0.00 95 1016.2
20260903105008 62 193 0.0 0.0 0.00 0.00 0.00 95 1016.3
20260903104516 62 193 0.0 0.0 0.00 0.00 0.00 95 1016.3
20260903104011 62 193 0.0 0.0 0.00 0.00 0.00 95 1016.2
20260903103510 62 193 0.0 0.0 0.00 0.00 0.00 94 1016.1
20260903103025 62 193 0.0 0.0 0.00 0.00 0.00 94 1016.3
20260903102513 62 193 0.0 0.0 0.00 0.00 0.00 94 1016.2
20260903102005 62 193 0.0 0.0 0.00 0.00 0.00 94 1016.3
20260903101506 62 193 0.0 0.0 0.00 0.00 0.00 94 1016.3
20260903101003 62 193 0.0 0.0 0.00 0.00 0.00 94 1016.2
20260903100503 62 193 0.0 0.0 0.00 0.00 0.00 94 1016.2
20260903100007 62 193 0.0 0.0 0.00 0.00 0.00 93 1016.2
20260903095505 62 193 0.0 0.0 0.00 0.00 0.00 94 1016.2
20260903095004 62 193 0.0 0.0 0.00 0.00 0.00 93 1016.2
20260903094511 62 193 0.0 0.0 0.00 0.00 0.00 93 1016.2
20260903094006 62 193 0.0 0.0 0.00 0.00 0.00 93 1016.2
20260903093508 62 193 0.0 2.0 0.00 0.00 0.00 93 1016.3
20260903093031 63 193 0.0 2.0 0.00 0.00 0.00 93 1016.2
20260903092510 63 193 0.0 0.0 0.00 0.00 0.00 93 1016.3
20260903092011 63 193 0.0 0.0 0.00 0.00 0.00 93 1016.5
20260903091532 63 193 0.0 0.0 0.00 0.00 0.00 93 1016.7
20260903091013 63 193 0.0 0.0 0.00 0.00 0.00 92 1016.8
20260903090504 63 193 0.0 0.0 0.00 0.00 0.00 92 1016.8
20260903090004 63 193 0.0 0.0 0.00 0.00 0.00 92 1016.7
20260903085504 63 193 0.0 0.0 0.00 0.00 0.00 92 1016.6
20260903085003 63 193 0.0 0.0 0.00 0.00 0.00 91 1016.8
20260903084509 63 193 0.0 0.0 0.00 0.00 0.00 91 1016.8
20260903084005 64 193 0.0 0.0 0.00 0.00 0.00 91 1016.8
20260903083507 64 193 0.0 0.0 0.00 0.00 0.00 91 1016.8
20260903083012 64 193 0.0 0.0 0.00 0.00 0.00 90 1016.7
20260903082508 64 193 0.0 0.0 0.00 0.00 0.00 89 1016.7
20260903082008 64 193 0.0 0.0 0.00 0.00 0.00 89 1016.7
20260903081520 64 193 0.0 0.0 0.00 0.00 0.00 88 1016.9
20260903081010 65 193 0.0 4.0 0.00 0.00 0.00 87 1016.8
20260903080513 65 193 0.0 4.0 0.00 0.00 0.00 85 1016.7
20260903080026 65 193 0.0 0.0 0.00 0.00 0.00 85 1016.7
20260903075515 65 193 0.0 5.0 0.00 0.00 0.00 83 1016.8
20260903075016 65 193 0.0 5.0 0.00 0.00 0.00 81 1016.8
20260903074531 65 192 0.0 5.0 0.00 0.00 0.00 81 1016.8
20260903074004 65 191 0.0 5.0 0.00 0.00 0.00 81 1016.8
20260903073505 65 191 0.0 7.0 0.00 0.00 0.00 82 1016.8
20260903073027 65 181 0.0 7.0 0.00 0.00 0.00 82 1016.7
20260903072508 65 157 0.0 4.0 0.00 0.00 0.00 82 1016.7
20260903072008 65 214 0.0 4.0 0.00 0.00 0.00 82 1016.9
20260903071516 65 214 0.0 4.0 0.00 0.00 0.00 82 1016.8
20260903071008 65 207 0.0 3.0 0.00 0.00 0.00 82 1016.9
20260903070508 65 207 0.0 3.0 0.00 0.00 0.00 82 1016.9
20260903070034 65 250 0.0 2.0 0.00 0.00 0.00 83 1017.0
20260903065514 65 205 0.0 2.0 0.00 0.00 0.00 83 1017.1
20260903065012 65 205 0.0 4.0 0.00 0.00 0.00 82 1017.3
20260903064530 65 115 0.0 4.0 0.00 0.00 0.00 82 1017.4
20260903064015 65 185 0.0 4.0 0.00 0.00 0.00 83 1017.6
20260903063516 65 195 0.0 0.0 0.00 0.00 0.00 83 1017.8
20260903063010 65 195 0.0 1.0 0.00 0.00 0.00 83 1017.9
20260903062507 65 195 0.0 1.0 0.00 0.00 0.00 83 1018.0
20260903062007 65 214 0.0 1.0 0.00 0.00 0.00 83 1018.0
20260903061528 65 203 0.0 1.0 0.00 0.00 0.00 84 1018.2
20260903061007 66 200 0.0 1.0 0.00 0.00 0.00 84 1018.3
20260903060512 66 200 0.0 1.0 0.00 0.00 0.00 84 1018.5
20260903060020 66 200 0.0 0.0 0.00 0.00 0.00 84 1018.8
20260903055510 66 200 0.0 0.0 0.00 0.00 0.00 84 1018.9
20260903055013 66 200 0.0 4.0 0.00 0.00 0.00 84 1019.0
20260903054528 65 200 0.0 4.0 0.00 0.00 0.00 83 1019.1
20260903054014 65 187 0.0 3.0 0.00 0.00 0.00 84 1019.1
20260903053514 65 171 0.0 3.0 0.00 0.00 0.00 84 1019.1
20260903053027 65 200 0.0 0.0 0.00 0.00 0.00 85 1019.1
20260903052516 65 172 0.0 1.0 0.00 0.00 0.00 85 1019.0
20260903052016 65 197 0.0 1.0 0.00 0.00 0.00 86 1019.2
20260903051532 65 185 0.0 0.0 0.00 0.00 0.00 86 1018.9
20260903051003 65 185 0.0 0.0 0.00 0.00 0.00 86 1019.0
20260903050508 65 185 0.0 0.0 0.00 0.00 0.00 86 1018.9
20260903050016 65 185 0.0 0.0 0.00 0.00 0.00 87 1018.8
20260903045510 65 185 0.0 0.0 0.00 0.00 0.00 87 1018.8
20260903045011 65 185 0.0 0.0 0.00 0.00 0.00 87 1018.9
20260903044521 65 184 0.0 0.0 0.00 0.00 0.00 87 1019.1
20260903044013 65 188 0.0 1.0 0.00 0.00 0.00 87 1019.3
20260903043513 66 188 0.0 1.0 0.00 0.00 0.00 87 1019.4
20260903043029 66 179 0.0 0.0 0.00 0.00 0.00 87 1019.4
20260903042514 66 179 0.0 0.0 0.00 0.00 0.00 86 1019.5
20260903042017 66 179 0.0 0.0 0.00 0.00 0.00 87 1019.5
20260903041533 66 179 0.0 0.0 0.00 0.00 0.00 86 1019.5
20260903041014 66 179 0.0 0.0 0.00 0.00 0.00 86 1019.5
20260903040516 66 179 0.0 0.0 0.00 0.00 0.00 86 1019.4
20260903040036 66 179 0.0 0.0 0.00 0.00 0.00 86 1019.3
20260903035519 66 179 0.0 0.0 0.00 0.00 0.00 86 1019.3
20260903035009 66 179 0.0 0.0 0.00 0.00 0.00 86 1019.3
20260903034518 66 179 0.0 0.0 0.00 0.00 0.00 86 1019.3
20260903034010 66 179 0.0 0.0 0.00 0.00 0.00 85 1019.3
20260903033504 66 179 0.0 0.0 0.00 0.00 0.00 85 1019.4
20260903033004 66 179 0.0 0.0 0.00 0.00 0.00 85 1019.5
20260903032503 66 179 0.0 0.0 0.00 0.00 0.00 85 1019.7
20260903032004 66 178 0.0 0.0 0.00 0.00 0.00 85 1019.7
20260903031505 66 178 0.0 0.0 0.00 0.00 0.00 85 1019.8
20260903031004 66 178 0.0 0.0 0.00 0.00 0.00 85 1019.9
20260903030505 66 178 0.0 0.0 0.00 0.00 0.00 84 1020.0
20260903030010 66 169 0.0 0.0 0.00 0.00 0.00 84 1020.0
20260903025508 66 200 0.0 0.0 0.00 0.00 0.00 84 1020.0
20260903025004 66 200 0.0 0.0 0.00 0.00 0.00 84 1020.1
20260903024516 66 200 0.0 0.0 0.00 0.00 0.00 84 1020.1
20260903024006 66 200 0.0 0.0 0.00 0.00 0.00 84 1020.2
20260903023511 66 200 0.0 0.0 0.00 0.00 0.00 84 1020.0
20260903023021 66 200 0.0 0.0 0.00 0.00 0.00 84 1020.2
20260903022511 66 200 0.0 0.0 0.00 0.00 0.00 83 1020.3
20260903022003 66 200 0.0 0.0 0.00 0.00 0.00 83 1020.5
20260903021507 66 200 0.0 2.0 0.00 0.00 0.00 83 1020.3
20260903021002 66 200 0.0 4.0 0.00 0.00 0.00 83 1020.2
20260903020503 66 186 0.0 4.0 0.00 0.00 0.00 83 1020.1
20260903020008 66 225 0.0 0.0 0.00 0.00 0.00 83 1020.2
20260903015509 66 225 0.0 0.0 0.00 0.00 0.00 83 1020.4
20260903015004 66 225 0.0 0.0 0.00 0.00 0.00 83 1020.6
20260903014512 66 225 0.0 0.0 0.00 0.00 0.00 83 1020.8
20260903014005 66 225 0.0 0.0 0.00 0.00 0.00 83 1020.6
20260903013508 66 225 0.0 0.0 0.00 0.00 0.00 83 1020.4
20260903013034 66 226 0.0 0.0 0.00 0.00 0.00 83 1020.5
20260903012510 67 223 0.0 0.0 0.00 0.00 0.00 82 1020.2
20260903012010 67 225 0.0 0.0 0.00 0.00 0.00 82 1019.9
20260903011526 67 219 0.0 0.0 0.00 0.00 0.00 82 1019.8
20260903011013 67 218 0.0 1.0 0.00 0.00 0.00 82 1019.8
20260903010514 67 212 0.0 3.0 0.00 0.00 0.00 81 1019.7
20260903010030 67 191 0.0 3.0 0.00 0.00 0.00 81 1019.9
20260903005503 67 171 0.0 3.0 0.00 0.00 0.00 80 1019.9
20260903005003 67 205 0.0 3.0 0.00 0.00 0.00 80 1020.0
20260903004509 67 237 0.0 0.0 0.00 0.00 0.00 79 1020.1
20260903004004 68 209 0.0 0.0 0.00 0.00 0.00 79 1020.1
20260903003505 68 214 0.0 0.0 0.00 0.00 0.00 78 1020.0
20260903003016 68 210 0.0 0.0 0.00 0.00 0.00 77 1020.1
20260903002507 68 192 0.0 0.0 0.00 0.00 0.00 77 1020.1
20260903002009 68 192 0.0 4.0 0.00 0.00 0.00 77 1020.1
20260903001521 68 191 0.0 4.0 0.00 0.00 0.00 76 1020.1
20260903001010 68 185 0.0 4.0 0.00 0.00 0.00 75 1020.2
20260903000511 68 285 0.0 2.0 0.00 0.00 0.00 74 1020.2
20260903000029 68 250 0.0 2.0 0.00 0.00 0.00 73 1020.3
20260902235513 68 341 0.0 0.0 0.00 0.00 0.00 74 1020.4
20260902235017 69 341 0.0 0.0 0.00 0.00 0.00 73 1020.6
20260902234504 69 341 0.0 0.0 0.00 0.00 0.00 73 1020.8
20260902234004 69 341 0.0 0.0 0.00 0.00 0.00 72 1020.7
20260902233504 69 341 0.0 0.0 0.00 0.00 0.00 72 1020.8
20260902233013 69 341 0.0 0.0 0.00 0.00 0.00 70 1021.0
20260902232508 69 345 0.0 0.0 0.00 0.00 0.00 70 1021.0